FW9733 Weather Reports


time (UTC)temp
C
wind
direction
speed
KPH
gust
KPH
rain 1hr
cm
rain 24hr
cm
rain mn
cm
humidity
%
barometer
mb
20260507113045 1 0 0.0 0.0 0.00 0.00 0.00 74 1023.9
20260507111555 1 0 0.0 0.0 0.00 0.00 0.00 73 1024.0
20260507110051 1 0 0.0 0.0 0.00 0.00 0.00 73 1024.0
20260507104548 1 0 0.0 0.0 0.00 0.00 0.00 72 1024.0
20260507103053 1 0 0.0 0.0 0.00 0.00 0.00 72 1024.1
20260507101550 1 0 0.0 0.0 0.00 0.00 0.00 71 1024.0
20260507100057 1 0 0.0 0.0 0.00 0.00 0.00 71 1024.1
20260507094544 2 0 0.0 0.0 0.00 0.00 0.00 70 1024.1
20260507093049 2 0 0.0 0.0 0.00 0.00 0.00 70 1024.2
20260507091549 2 0 0.0 1.6 0.00 0.00 0.00 70 1024.3
20260507090050 2 0 0.0 0.0 0.00 0.00 0.00 70 1024.3
20260507084554 2 0 0.0 0.0 0.00 0.00 0.00 69 1024.5
20260507083050 2 0 0.0 0.0 0.00 0.00 0.00 68 1024.5
20260507081551 2 0 0.0 0.0 0.00 0.00 0.00 67 1024.5
20260507080114 2 0 0.0 1.6 0.00 0.00 0.00 67 1024.4
20260507074557 2 0 0.0 1.6 0.00 0.00 0.00 66 1024.5
20260507073058 3 0 0.0 1.6 0.00 0.00 0.00 65 1024.3
20260507071602 3 0 0.0 1.6 0.00 0.00 0.00 64 1024.4
20260507070053 3 0 0.0 1.6 0.00 0.00 0.00 62 1024.2
20260507064554 3 0 0.0 1.6 0.00 0.00 0.00 62 1024.4
20260507063054 3 0 0.0 1.6 0.00 0.00 0.00 61 1024.5
20260507061550 3 0 0.0 0.0 0.00 0.00 0.00 61 1024.4
20260507060050 3 0 0.0 0.0 0.00 0.00 0.00 59 1024.3
20260507054552 4 0 0.0 0.0 0.00 0.00 0.00 59 1024.4
20260507053048 4 0 0.0 0.0 0.00 0.00 0.00 59 1024.2
20260507051552 4 0 0.0 1.6 0.00 0.00 0.00 58 1024.1
20260507050051 5 0 0.0 1.6 0.00 0.00 0.00 58 1024.2
20260507044549 5 0 0.0 0.0 0.00 0.00 0.00 57 1024.1
20260507043046 5 0 0.0 0.0 0.00 0.00 0.00 56 1024.0
20260507041545 6 0 0.0 1.6 0.00 0.00 0.00 55 1024.1
20260507040058 6 70 0.0 1.6 0.00 0.00 0.00 54 1023.9
20260507034557 7 0 0.0 1.6 0.00 0.00 0.00 52 1023.9
20260507033049 7 70 0.0 1.6 0.00 0.00 0.00 51 1023.8
20260507031548 8 0 0.0 1.6 0.00 0.00 0.00 49 1023.4
20260507030053 10 0 0.0 1.6 0.00 0.00 0.00 46 1023.1
20260507024545 11 0 0.0 1.6 0.00 0.00 0.00 42 1023.1
20260507023045 12 0 0.0 1.6 0.00 0.00 0.00 40 1023.0
20260507021552 12 0 0.0 6.4 0.00 0.00 0.00 40 1022.8
20260507020057 13 82 0.0 1.6 0.00 0.00 0.00 38 1022.7
20260507014606 13 0 0.0 8.0 0.00 0.00 0.00 36 1022.6
20260507013053 14 68 0.0 4.8 0.00 0.00 0.00 34 1022.6
20260507011601 15 137 0.0 8.0 0.00 0.00 0.00 32 1022.6
20260507010047 16 0 0.0 4.8 0.00 0.00 0.00 30 1022.3
20260507004550 16 24 1.6 8.0 0.00 0.00 0.00 30 1022.4
20260507003048 15 330 1.6 9.7 0.00 0.00 0.00 31 1022.2
20260507001605 16 23 1.6 9.7 0.00 0.00 0.00 32 1022.3
20260507000059 15 78 1.6 9.7 0.00 0.00 0.00 35 1022.1
20260506234552 15 124 0.0 6.4 0.00 0.00 0.00 37 1022.0
20260506233052 15 60 4.8 12.9 0.00 0.00 0.00 38 1021.9
20260506231552 15 260 1.6 8.0 0.00 0.00 0.00 39 1021.9
20260506230053 16 0 0.0 6.4 0.00 0.00 0.00 38 1021.9
20260506224550 16 270 1.6 9.7 0.00 0.00 0.00 38 1021.9
20260506223048 16 129 3.2 9.7 0.00 0.00 0.00 35 1022.0
20260506221546 16 270 3.2 11.3 0.00 0.00 0.00 39 1022.3
20260506220058 15 262 0.0 11.3 0.00 0.00 0.00 39 1022.4
20260506214546 16 280 3.2 16.1 0.00 0.00 0.00 37 1022.5
20260506213057 16 0 3.2 11.3 0.00 0.00 0.00 35 1022.4
20260506211551 16 356 4.8 11.3 0.00 0.00 0.00 37 1022.5
20260506210107 16 115 4.8 12.9 0.00 0.00 0.00 38 1022.2
20260506204553 16 129 3.2 12.9 0.00 0.00 0.00 38 1022.3
20260506203138 16 75 3.2 14.5 0.00 0.00 0.00 38 1022.2
20260506201549 16 176 1.6 11.3 0.00 0.00 0.00 38 1022.2
20260506200054 16 113 4.8 8.0 0.00 0.00 0.00 38 1022.4
20260506194551 16 56 1.6 12.9 0.00 0.00 0.00 37 1022.5
20260506193048 16 146 3.2 11.3 0.00 0.00 0.00 38 1022.4
20260506191553 16 70 4.8 9.7 0.00 0.00 0.00 38 1022.4
20260506190055 16 295 1.6 9.7 0.00 0.00 0.00 40 1022.4
20260506184558 15 115 1.6 8.0 0.00 0.00 0.00 41 1022.5
20260506183049 15 65 3.2 12.9 0.00 0.00 0.00 41 1022.5
20260506181546 15 139 8.0 17.7 0.00 0.00 0.00 40 1022.4
20260506180051 15 136 3.2 11.3 0.00 0.00 0.00 40 1022.2
20260506174559 14 0 3.2 12.9 0.00 0.00 0.00 41 1022.0
20260506173056 14 141 1.6 8.0 0.00 0.00 0.00 43 1021.8
20260506171557 13 79 3.2 11.3 0.00 0.00 0.00 43 1021.8
20260506170051 14 0 0.0 11.3 0.00 0.00 0.00 43 1021.6
20260506164553 13 285 1.6 8.0 0.00 0.00 0.00 41 1021.5
20260506163109 13 282 3.2 8.0 0.00 0.00 0.00 41 1021.4
20260506161546 13 359 0.0 8.0 0.00 0.00 0.00 42 1021.4
20260506160051 12 0 1.6 4.8 0.00 0.00 0.00 43 1021.1
20260506154554 11 124 1.6 6.4 0.00 0.00 0.00 46 1020.9
20260506153052 10 120 0.0 3.2 0.00 0.00 0.00 51 1020.9
20260506151548 6 0 0.0 1.6 0.00 0.00 0.00 74 1021.1
20260506150048 3 0 0.0 1.6 0.00 0.00 0.00 80 1021.1
20260506144551 0 0 0.0 1.6 0.00 0.00 0.00 85 1021.0
20260506143051 0 0 0.0 1.6 0.00 0.00 0.00 86 1020.9
20260506141548 -1 0 0.0 1.6 0.00 0.00 0.00 87 1020.8
20260506140049 -1 0 0.0 1.6 0.00 0.00 0.00 88 1020.6
20260506134552 -2 0 0.0 0.0 0.00 0.00 0.00 89 1020.4
20260506133047 -2 0 0.0 0.0 0.00 0.00 0.00 89 1020.1
20260506131556 -2 0 0.0 0.0 0.00 0.00 0.00 89 1019.9
20260506130046 -2 0 0.0 0.0 0.00 0.00 0.00 89 1019.9
20260506124546 -2 0 0.0 0.0 0.00 0.00 0.00 89 1019.6
20260506123055 -2 0 0.0 0.0 0.00 0.00 0.00 89 1019.4
20260506121559 -2 0 0.0 0.0 0.00 0.00 0.00 89 1019.2
20260506120048 -2 0 0.0 0.0 0.00 0.00 0.00 89 1019.1
20260506114547 -2 0 0.0 0.0 0.00 0.00 0.00 89 1018.9